Weather reports worldwide

Advertisment
Shobdon, United Kingdom (3520): temperature & dewpoint: 11.11.2018 03:00:00 - 17.11.2018 03:00:00 (GMT)Shobdon, United Kingdom (3520): temperature -20cm & temperature -100cm: 11.11.2018 03:00:00 - 17.11.2018 03:00:00 (GMT)Shobdon, United Kingdom (3520): wind speed & gusts: 11.11.2018 03:00:00 - 17.11.2018 03:00:00 (GMT)Shobdon, United Kingdom (3520): wind direction: 11.11.2018 03:00:00 - 17.11.2018 03:00:00 (GMT)Shobdon, United Kingdom (3520): reduced air pressure: 11.11.2018 03:00:00 - 17.11.2018 03:00:00 (GMT)Shobdon, United Kingdom (3520): visibility: 11.11.2018 03:00:00 - 17.11.2018 03:00:00 (GMT)Shobdon, United Kingdom (3520): sunshine duration: 11.11.2018 03:00:00 - 17.11.2018 03:00:00 (GMT)Shobdon, United Kingdom (3520): precipitation: 11.11.2018 03:00:00 - 17.11.2018 03:00:00 (GMT)
Date & Time tt [°C] td [°C] tt -20cm [°C] tt -100cm [°C] ff [km/h] ff [kn] fx [km/h] fx [kn] dd ppp [hPa] vv [km] sd [min] rr [mm]
17.11.2018 03:00:00 8,5 8,3 - - 9 5 - - E 1026,5 4,1 0 0,0
17.11.2018 02:00:00 8,5 8,2 - - 11 6 - - E 1026,5 3,4 0 0,0
17.11.2018 01:00:00 8,6 8,3 - - 13 7 - - E 1026,3 2,8 0 0,2
17.11.2018 00:00:00 9,2 8,9 - - 15 8 - - E 1025,9 2,3 - 0,0
16.11.2018 23:00:00 10,0 9,7 - - 13 7 - - E 1025,6 3,4 0 0,0
16.11.2018 22:00:00 10,2 9,8 - - 11 6 - - ESE 1025,4 3,1 0 0,2
16.11.2018 21:00:00 10,2 9,9 - - 13 7 - - E 1025,2 3,7 0 0,0
16.11.2018 20:00:00 10,6 10,1 - - 15 8 - - E 1025,0 3,8 0 0,0
16.11.2018 19:00:00 11,2 10,3 - - 13 7 - - ESE 1025,1 4,8 0 0,0
16.11.2018 18:00:00 11,8 10,3 - - 13 7 - - E 1024,8 9 0 0,0
16.11.2018 17:00:00 12,2 10,3 - - 13 7 - - E 1024,5 10 0 0,0
16.11.2018 16:00:00 12,7 10,8 - - 13 7 - - ESE 1024,1 9 0 0,0
16.11.2018 15:00:00 13,2 11,3 - - 11 6 - - ESE 1023,9 10 0 0,0
16.11.2018 14:00:00 13,1 11,3 - - 11 6 - - ESE 1024,0 10 0 0,0
16.11.2018 13:00:00 12,8 11,2 - - 5 3 - - SE 1024,2 10 0 0,0
16.11.2018 12:00:00 12,4 11,0 - - 9 5 - - ESE 1024,4 9 0 0,0
16.11.2018 11:00:00 12,0 11,0 - - 5 3 - - ESE 1024,5 7 0 0,0
16.11.2018 10:00:00 11,7 11,0 - - 5 3 - - SE 1024,5 5 0 0,0
16.11.2018 09:00:00 11,6 11,0 9,7 10,7 9 5 - - SE 1024,2 5 0 0,0
16.11.2018 08:00:00 11,4 10,9 - - 5 3 - - ESE 1024,1 4,4 0 0,0
16.11.2018 07:00:00 11,3 10,8 - - 5 3 - - ESE 1023,3 3,6 0 0,0
16.11.2018 06:00:00 11,4 11,0 - - 5 3 - - ESE 1022,8 3,3 0 0,0
16.11.2018 05:00:00 11,3 10,8 - - 8 4 - - E 1022,1 3,4 0 0,0
16.11.2018 04:00:00 11,6 11,0 - - 2 1 - - ESE 1021,9 6 0 0,0
16.11.2018 03:00:00 11,5 11,0 - - 9 5 - - ESE 1021,3 5 0 0,0
16.11.2018 02:00:00 11,5 10,8 - - 4 2 - - ESE 1021,6 6 0 0,0
16.11.2018 01:00:00 11,8 11,1 - - 2 1 - - SSE 1021,5 7 0 0,0
16.11.2018 00:00:00 11,9 11,2 - - 8 4 - - SE 1021,2 7 - 0,0
15.11.2018 23:00:00 12,0 11,2 - - 5 3 - - SSE 1020,8 9 0 0,0
15.11.2018 22:00:00 12,2 11,4 - - 8 4 - - SE 1020,5 10 0 0,0
15.11.2018 21:00:00 11,4 10,9 - - 2 1 - - NNW 1020,0 2,7 0 0,0
15.11.2018 20:00:00 11,4 10,8 - - 2 1 - - SW 1019,2 4,3 0 0,0
15.11.2018 19:00:00 11,2 10,5 - - 8 4 - - SE 1018,7 4,1 0 0,0
15.11.2018 18:00:00 11,4 9,8 - - 5 3 - - NE 1018,8 9 0 0,0
15.11.2018 17:00:00 11,7 9,6 - - 4 2 - - S 1018,6 11 0 0,0
15.11.2018 16:00:00 11,9 9,3 - - 9 5 - - SSE 1018,4 12 0 0,0
15.11.2018 15:00:00 12,2 9,1 - - 11 6 - - S 1018,7 15 12 0,0
15.11.2018 14:00:00 12,2 9,3 - - 8 4 - - S 1018,7 15 6 0,0
15.11.2018 13:00:00 11,6 8,8 - - 11 6 - - S 1018,9 15 30 0,0
15.11.2018 12:00:00 11,5 9,1 - - 11 6 - - S 1019,2 15 0 0,0
15.11.2018 11:00:00 11,0 9,1 - - 9 5 - - SSE 1019,3 13 0 0,0
15.11.2018 10:00:00 10,4 9,4 - - 9 5 - - SE 1019,4 10 0 0,0
15.11.2018 09:00:00 9,7 9,7 9,4 10,7 9 5 - - SE 1019,2 8 0 0,0
15.11.2018 08:00:00 7,1 7,1 - - 5 3 - - E 1019,1 8 0 0,0
15.11.2018 07:00:00 4,0 4,0 - - 4 2 - - E 1019,1 7 0 0,0
15.11.2018 06:00:00 1,6 1,6 - - 2 1 - - NNE 1019,2 5 0 0,0
15.11.2018 05:00:00 0,3 0,0 - - 2 1 - - ENE 1019,1 4,9 0 0,0
15.11.2018 04:00:00 0,3 -0,3 - - 4 2 - - W 1019,3 5 0 0,0
15.11.2018 03:00:00 1,5 0,8 - - 4 2 - - SW 1019,3 6 0 0,0
15.11.2018 02:00:00 3,8 3,1 - - 2 1 - - NW 1019,4 11 0 0,0
15.11.2018 01:00:00 4,1 3,4 - - 5 3 - - ESE 1019,3 15 0 0,0
15.11.2018 00:00:00 7,1 5,7 - - 5 3 - - S 1019,2 21 - 0,0
14.11.2018 23:00:00 7,1 6,5 - - 8 4 - - ENE 1019,2 26 0 0,0
14.11.2018 22:00:00 8,3 6,0 - - 5 3 - - S 1019,3 28 0 0,0
14.11.2018 21:00:00 8,5 6,5 - - 8 4 - - S 1019,2 23 0 0,0
14.11.2018 20:00:00 - - - - - - - - - - 22 0 0,0
14.11.2018 19:00:00 - - - - - - - - - - 30 0 0,0
14.11.2018 18:00:00 - - - - - - - - - - 30 0 0,0
14.11.2018 17:00:00 - - - - - - - - - - 30 0 0,0
14.11.2018 16:00:00 - - - - - - - - - - 35 18 0,0
14.11.2018 15:00:00 - - - - - - - - - - 35 18 0,0
14.11.2018 14:00:00 - - - - - - - - - - 35 54 0,0
14.11.2018 13:00:00 - - - - - - - - - - 35 48 0,0
14.11.2018 12:00:00 13,7 8,2 - - 13 7 - - SSW 1018,6 29 0 0,0
14.11.2018 11:00:00 12,2 9,0 - - 11 6 - - SSW 1019,3 27 0 0,0
14.11.2018 10:00:00 12,7 9,5 - - 11 6 - - S 1019,0 27 18 0,0
14.11.2018 09:00:00 11,2 8,6 9,4 10,7 11 6 - - SSW 1019,2 27 0 0,0
14.11.2018 08:00:00 11,3 8,3 - - 11 6 - - S 1018,7 29 0 0,0
14.11.2018 07:00:00 11,5 8,3 - - 8 4 - - S 1018,3 30 0 0,0
14.11.2018 06:00:00 11,5 8,2 - - 15 8 - - SSW 1018,2 29 0 0,0
14.11.2018 05:00:00 11,8 7,5 - - 11 6 - - SSW 1018,3 30 0 0,0
14.11.2018 04:00:00 11,5 7,1 - - 13 7 - - SSW 1018,4 35 0 0,0
14.11.2018 03:00:00 11,6 7,6 - - 15 8 - - SSW 1018,8 30 0 0,0
14.11.2018 02:00:00 11,0 8,1 - - 15 8 - - SSW 1019,1 29 0 0,2
14.11.2018 01:00:00 11,2 7,8 - - 13 7 - - S 1019,8 29 0 0,0
14.11.2018 00:00:00 11,2 8,3 - - 15 8 - - SSW 1020,1 26 - 0,0
13.11.2018 23:00:00 10,9 8,3 - - 11 6 - - S 1020,5 24 0 0,0
13.11.2018 22:00:00 10,4 7,9 - - 11 6 - - S 1021,0 27 0 0,0
13.11.2018 21:00:00 10,2 7,8 - - 9 5 - - S 1020,9 28 0 0,0
13.11.2018 20:00:00 10,9 7,8 - - 13 7 - - S 1021,4 30 0 0,0
13.11.2018 19:00:00 9,6 7,5 - - 4 2 - - S 1021,8 29 0 0,0
13.11.2018 18:00:00 9,2 7,6 - - 2 1 - - WSW 1021,6 27 0 0,0
13.11.2018 17:00:00 10,4 7,6 - - 13 7 - - SW 1021,4 29 0 0,0
13.11.2018 16:00:00 11,3 7,2 - - 13 7 - - WSW 1021,1 27 0 0,0
13.11.2018 15:00:00 11,7 7,5 - - 15 8 - - SW 1020,7 26 18 0,0
13.11.2018 14:00:00 12,3 7,2 - - 15 8 - - SW 1020,5 25 18 0,0
13.11.2018 13:00:00 11,6 7,8 - - 16 9 - - W 1020,7 28 30 0,0
13.11.2018 12:00:00 12,0 8,3 - - 18 10 - - WSW 1020,2 28 12 0,0
13.11.2018 11:00:00 11,4 7,8 - - 22 12 - - WSW 1019,8 27 60 0,0
13.11.2018 10:00:00 10,3 7,5 - - 16 9 - - WSW 1019,1 28 60 0,0
13.11.2018 09:00:00 8,8 6,7 9,4 10,7 24 13 - - WSW 1017,9 29 42 0,0
13.11.2018 08:00:00 8,6 6,2 - - 15 8 - - SSW 1016,9 25 0 0,0
13.11.2018 07:00:00 8,1 6,1 - - 8 4 - - S 1015,9 27 0 0,0
13.11.2018 06:00:00 6,3 5,4 - - 5 3 - - W 1014,9 27 0 0,0
13.11.2018 05:00:00 6,6 5,0 - - 9 5 - - WSW 1013,5 27 0 0,0
13.11.2018 04:00:00 7,5 5,6 - - 16 9 - - WSW 1011,9 30 0 0,0
13.11.2018 03:00:00 8,8 4,7 - - 28 15 - - W 1011,3 30 0 0,0
13.11.2018 02:00:00 7,6 5,4 - - 18 10 - - W 1010,7 35 0 0,0
13.11.2018 01:00:00 6,8 5,8 - - 2 1 - - W 1009,9 30 0 0,0
13.11.2018 00:00:00 7,6 5,8 - - 13 7 - - WSW 1009,4 35 - 0,0
12.11.2018 23:00:00 7,8 6,5 - - 11 6 - - SSW 1008,5 35 0 0,0
12.11.2018 22:00:00 8,5 7,0 - - 21 11 - - SW 1008,2 12 0 0,2
12.11.2018 21:00:00 7,7 6,4 - - 18 10 - - WSW 1007,8 40 0 3,2
12.11.2018 20:00:00 9,2 6,6 - - 15 8 - - SW 1007,2 35 0 0,0
12.11.2018 19:00:00 8,1 6,9 - - 26 14 48 26 WSW 1007,5 14 0 2,6
12.11.2018 18:00:00 9,0 7,2 - - 5 3 - - WSW 1007,1 24 0 0,6
12.11.2018 17:00:00 9,5 6,9 - - 11 6 - - SW 1006,6 26 0 0,4
12.11.2018 16:00:00 11,3 6,4 - - 15 8 - - SSW 1006,2 30 0 0,0
12.11.2018 15:00:00 12,3 6,1 - - 24 13 - - SW 1005,5 30 6 0,0
12.11.2018 14:00:00 12,6 6,5 - - 18 10 - - SSW 1005,4 30 6 0,0
12.11.2018 13:00:00 12,4 6,1 - - 26 14 - - SW 1005,2 30 30 0,0
12.11.2018 12:00:00 12,1 6,6 - - 24 13 - - SW 1005,3 29 30 0,0
12.11.2018 11:00:00 12,0 8,3 - - 13 7 - - SSW 1005,6 26 24 0,0
12.11.2018 10:00:00 10,5 8,3 - - 15 8 - - S 1005,5 22 18 0,0
12.11.2018 09:00:00 9,6 8,1 9,5 10,9 13 7 - - S 1005,4 22 6 0,0
12.11.2018 08:00:00 7,6 7,6 - - 9 5 - - SE 1005,0 20 0 0,0
12.11.2018 07:00:00 5,6 5,6 - - 5 3 - - E 1004,6 17 0 0,0
12.11.2018 06:00:00 3,8 3,6 - - 0 0 - - N 1004,4 11 0 0,0
12.11.2018 05:00:00 4,8 4,7 - - 5 3 - - ENE 1004,2 12 0 0,0
12.11.2018 04:00:00 4,3 4,1 - - 5 3 - - E 1003,7 16 0 0,0
12.11.2018 03:00:00 4,3 3,9 - - 5 3 - - E 1003,5 18 0 0,0
12.11.2018 02:00:00 5,1 3,4 - - 2 1 - - SE 1003,1 21 0 0,0
12.11.2018 01:00:00 8,8 7,1 - - 11 6 - - S 1002,8 25 0 0,0
12.11.2018 00:00:00 6,0 5,5 - - 4 2 - - ESE 1002,7 20 - 0,0
11.11.2018 23:00:00 6,0 4,5 - - 4 2 - - SW 1002,4 6 0 0,0
11.11.2018 22:00:00 5,5 5,1 - - 5 3 - - S 1002,1 24 0 0,0
11.11.2018 21:00:00 4,6 4,0 - - 2 1 - - SSW 1002,0 22 0 0,0
11.11.2018 20:00:00 5,8 5,4 - - 5 3 - - SSW 1001,6 24 0 0,0
11.11.2018 19:00:00 5,0 4,1 - - 4 2 - - SW 1001,1 23 0 0,0
11.11.2018 18:00:00 7,2 4,1 - - 4 2 - - SSE 1000,4 28 0 0,0
11.11.2018 17:00:00 9,4 5,1 - - 8 4 - - S 999,8 30 0 0,0
11.11.2018 16:00:00 10,3 6,2 - - 15 8 - - SW 998,5 27 30 0,0
11.11.2018 15:00:00 10,2 6,6 - - 21 11 - - WSW 998,2 40 36 0,2
11.11.2018 14:00:00 11,2 7,4 - - 15 8 - - W 997,6 30 30 0,0
11.11.2018 13:00:00 9,9 7,8 - - 18 10 - - WSW 996,8 29 12 0,4
11.11.2018 12:00:00 11,7 7,2 - - 24 13 - - WSW 996,1 35 60 0,0
11.11.2018 11:00:00 10,9 7,2 - - 21 11 - - WSW 995,3 30 42 0,0
11.11.2018 10:00:00 9,1 7,3 - - 15 8 - - SW 994,3 40 36 0,0
11.11.2018 09:00:00 7,6 6,7 9,9 11,0 11 6 - - WSW 993,2 50 0 0,0
11.11.2018 08:00:00 7,8 7,8 - - 9 5 - - SW 991,8 20 0 0,8
11.11.2018 07:00:00 7,2 7,2 - - 8 4 - - ESE 990,8 14 0 0,0
11.11.2018 06:00:00 6,8 6,8 - - 8 4 - - ENE 990,9 11 0 0,4
11.11.2018 05:00:00 4,5 4,5 - - 5 3 - - ENE 991,3 6 0 0,0
11.11.2018 04:00:00 2,5 2,4 - - 2 1 - - ENE 991,9 0,4 0 0,2
11.11.2018 03:00:00 4,0 4,0 - - 4 2 - - E 992,0 3,4 0 0,0

tt = temperature
td = dewpoint
tt -20cm = temperature -20cm
tt -100cm = temperature -100cm
ff = wind speed
fx = gusts
dd = wind direction
ppp = reduced air pressure
vv = visibility
sd = sunshine duration
rr = precipitation

Next stations